Wind_Speed
6 4 8 10 10 11 12 11 9 9 11 9 7 7 8 8 7 8 11 12 12 13 13 12 9 12 13 11 11 11 10 11 11 11 10 9 9 8 8 8 9 10 9 11 14 15 15 15 16 17 20 23 25 27 27 28 28 27 26 26 26 24 22 20 19 19 18 17 17 18 19 17 15 15 13 10 10 9 7 8 9 8 8 8 8 11
7 9 12 12 9 9 11 12 10 11 14 12 8 8 9 9 8 9 11 12 13 11 10 13 9 11 14 11 11 12 12 11 11 12 11 11 10 8 9 10 10 10 9 11 12 13 15 16 16 14 15 19 22 24 25 27 27 26 26 25 25 24 22 21 19 20 20 17 16 17 19 18 16 15 14 12 11 10 9 10 13 14 13 11 12 14
10 12 12 10 7 8 10 12 12 12 13 11 7 6 6 9 8 10 14 11 12 9 9 15 10 9 12 11 10 11 11 10 10 13 13 14 12 10 10 10 11 11 9 9 9 11 14 15 15 14 14 16 18 21 24 26 26 24 24 23 22 22 22 21 19 20 20 17 15 14 16 17 17 15 15 15 14 13 13 14 16 17 16 14 14 13
10 9 9 9 9 12 11 12 14 11 10 9 7 6 4 8 9 8 12 11 11 10 10 14 7 7 9 8 7 7 8 9 9 12 12 12 12 11 11 10 12 13 11 9 8 8 11 13 14 14 15 15 16 20 22 24 25 24 23 23 22 22 21 20 19 19 20 19 16 14 14 15 16 16 16 17 17 16 17 17 16 16 14 14 13 11
8 5 9 11 12 15 13 12 14 10 8 9 10 8 6 8 10 10 10 8 10 10 10 13 6 4 8 8 7 5 7 8 9 11 11 10 11 12 12 10 10 12 11 11 10 8 9 11 13 15 17 15 16 19 20 22 25 24 24 23 21 21 20 20 19 19 20 21 19 18 16 15 17 17 18 19 19 18 18 17 15 12 11 11 11 10
7 8 13 15 13 14 13 11 14 12 7 8 11 11 11 12 8 11 12 5 8 7 7 13 7 1 5 9 10 7 8 8 8 11 12 11 12 11 11 10 8 9 9 10 11 10 10 11 13 15 17 16 17 19 19 20 22 23 24 23 21 21 20 20 19 20 21 22 23 22 21 21 20 19 19 20 20 18 17 16 14 11 9 9 9 10
6 10 14 15 13 13 13 10 13 14 7 7 9 10 14 16 12 12 13 6 6 6 6 9 8 2 4 6 10 10 11 11 10 12 13 12 10 8 8 10 9 8 8 8 9 10 10 12 14 14 16 17 17 18 19 19 21 23 24 23 22 21 20 20 20 21 21 21 22 22 22 23 22 21 19 19 20 18 16 14 12 10 8 8 9 10
8 14 15 15 14 12 12 11 13 14 9 7 9 10 13 14 14 15 10 5 5 5 5 6 9 6 4 5 8 12 13 11 11 13 13 13 11 8 8 9 9 9 9 9 9 9 10 13 15 15 16 17 18 19 19 20 22 24 24 22 21 21 19 19 19 19 20 21 21 21 22 22 22 23 21 20 20 18 15 13 11 10 9 8 8 8
10 14 16 16 13 10 11 12 12 13 11 9 10 12 11 12 14 13 7 4 6 6 5 7 8 7 4 5 7 11 12 11 12 13 13 14 13 11 8 8 9 9 9 10 10 10 11 13 16 17 17 17 18 20 20 21 23 24 24 23 21 20 19 17 17 18 19 19 20 21 22 23 23 24 23 22 20 17 15 15 13 11 10 9 8 7
9 11 13 15 12 9 10 12 14 13 11 10 12 12 11 11 11 8 5 4 6 7 7 9 9 6 3 6 8 9 10 10 11 11 12 14 13 12 10 10 10 10 9 10 10 10 12 14 17 18 18 18 19 21 22 23 24 24 25 25 24 22 20 18 17 17 17 17 18 19 21 23 23 22 22 20 18 17 17 17 15 12 10 9 8 6
9 10 11 12 11 10 9 12 15 14 10 10 11 11 10 9 5 2 3 3 3 4 7 9 11 7 4 6 8 9 12 13 13 12 12 13 14 12 11 11 12 11 9 10 10 11 14 17 18 19 19 20 21 21 23 23 23 24 24 26 25 24 22 21 19 19 19 18 19 20 21 23 22 20 19 18 18 17 16 17 15 13 11 10 8 8
11 12 10 8 12 12 10 10 14 14 10 9 10 8 7 5 2 2 2 1 2 5 5 8 9 8 5 6 9 10 13 17 17 16 17 16 15 12 10 11 12 12 11 11 10 11 14 16 17 20 21 22 22 22 23 22 23 24 25 26 27 24 23 23 22 22 21 20 20 20 21 21 20 18 18 18 17 15 15 16 14 13 12 11 10 12
9 11 11 9 12 14 10 8 10 11 10 9 9 6 5 2 2 3 3 1 4 4 6 10 8 6 4 8 15 12 10 16 16 17 20 19 15 12 11 11 10 11 12 11 10 11 12 13 16 20 21 22 22 22 22 22 22 24 25 25 26 24 22 22 22 22 21 20 20 19 19 19 19 19 19 18 17 16 16 16 14 12 11 11 13 15
6 9 13 11 10 13 11 7 8 8 9 12 9 5 5 5 4 5 3 2 2 4 5 8 4 4 3 8 18 17 13 17 18 18 20 19 18 16 13 12 11 12 12 11 11 11 10 13 17 20 20 20 21 22 21 21 22 24 24 25 26 25 22 22 22 22 21 20 19 18 19 19 19 20 19 18 18 17 17 15 14 13 12 13 15 15
5 6 12 11 8 13 15 10 9 8 7 11 9 5 4 4 5 4 2 4 3 2 1 3 3 4 4 6 17 20 16 17 19 18 18 18 18 16 13 13 13 13 12 11 11 11 11 16 19 20 20 20 21 21 21 21 23 23 24 24 25 25 23 22 22 22 22 21 19 19 18 18 18 19 19 18 17 16 16 16 14 13 13 14 14 13
6 4 11 12 8 15 16 10 9 8 5 8 6 5 5 4 5 4 3 5 6 3 1 0 1 3 3 4 13 18 15 17 18 17 17 16 16 15 14 14 14 12 12 12 12 11 13 17 20 20 20 20 20 21 21 22 23 23 23 24 24 24 22 22 22 22 22 21 20 19 18 17 16 17 17 16 15 14 14 13 13 14 14 14 13 11
6 3 11 13 8 14 16 11 10 8 5 6 5 5 6 5 5 5 1 0 5 4 3 1 1 1 2 2 6 15 17 17 18 18 18 17 16 16 15 14 13 12 13 13 12 11 13 17 19 20 20 21 20 21 22 22 23 23 24 23 23 23 22 21 20 20 20 20 20 19 18 16 15 14 14 14 14 13 12 11 13 14 14 13 13 12
5 2 10 16 12 12 11 9 11 6 3 5 5 5 5 5 4 4 2 1 4 3 4 2 5 3 5 1 2 10 17 16 16 18 18 17 16 15 14 14 14 14 14 14 13 12 14 17 19 19 20 21 22 22 22 23 24 24 23 23 22 22 21 20 19 19 19 19 19 19 18 16 15 14 13 12 12 12 12 13 13 13 13 13 14 13
4 1 5 14 14 8 3 2 8 7 4 4 6 5 5 5 3 2 4 3 4 3 3 2 6 4 5 6 4 7 15 16 16 17 18 19 16 14 14 14 15 14 13 13 13 12 12 16 19 19 20 22 23 22 23 25 25 24 22 21 21 20 19 18 17 17 17 17 18 19 18 17 16 15 15 13 14 15 15 15 13 13 14 15 14 14
3 2 1 8 9 5 2 3 5 5 6 6 6 6 5 5 3 3 4 4 4 4 3 2 4 3 4 9 12 13 16 18 18 17 18 19 17 14 14 14 14 14 13 12 13 11 12 16 19 21 22 23 23 24 25 26 26 25 23 21 21 20 19 18 17 17 17 16 18 19 18 16 15 15 15 16 17 18 17 16 15 16 16 15 14 14
1 3 1 3 4 3 2 3 5 5 4 5 5 5 5 4 4 3 2 3 5 5 4 3 2 4 4 7 16 18 19 20 20 18 16 16 16 15 15 16 15 14 14 13 13 12 12 17 21 22 23 23 23 25 25 26 26 25 23 22 22 21 20 20 20 20 20 19 20 20 18 17 17 16 17 17 17 18 18 17 17 16 16 16 16 15
1 2 2 3 2 3 5 6 6 7 6 5 3 3 5 5 5 3 1 2 4 3 5 4 2 5 4 3 14 19 19 19 21 20 16 15 17 16 15 16 16 15 14 14 14 12 13 18 20 22 23 23 23 25 25 26 26 25 24 24 22 22 22 21 22 22 22 21 21 20 20 19 19 19 18 18 18 19 19 18 17 17 17 17 16 16
4 2 3 5 4 5 8 8 10 12 10 7 6 3 4 4 4 5 3 4 3 2 4 5 2 5 5 3 12 15 16 18 19 21 18 16 17 16 15 15 14 14 14 15 15 13 14 19 21 22 23 22 22 25 25 25 26 25 25 24 22 22 21 20 21 22 21 21 21 20 20 20 20 20 20 19 19 19 18 18 18 17 18 17 16 15
4 2 4 5 3 5 8 9 10 12 9 7 7 4 4 5 5 5 4 4 4 3 4 4 2 5 6 3 10 11 12 15 15 18 19 16 14 15 16 15 14 14 14 15 14 13 16 19 20 21 21 20 21 24 24 24 26 25 24 23 23 22 22 21 21 22 20 21 21 21 21 20 21 21 21 19 19 19 19 19 18 17 17 17 16 15
1 1 3 6 2 4 7 6 6 8 6 4 4 5 5 5 7 6 2 2 2 5 6 6 3 6 5 4 13 13 14 14 13 15 17 17 15 14 14 13 13 14 14 14 15 14 15 17 17 19 19 19 21 22 23 25 26 25 24 24 24 23 23 22 21 21 21 21 22 22 21 21 21 21 21 20 19 19 19 19 18 18 17 18 18 17
3 2 3 6 4 5 7 5 4 5 3 2 2 5 6 5 8 9 3 3 2 5 4 6 4 4 3 7 16 16 17 15 12 12 13 14 16 15 14 13 13 13 14 15 15 14 15 15 15 18 19 20 21 20 22 26 25 24 25 25 25 25 24 22 22 22 22 21 22 22 22 22 21 21 21 21 20 20 19 18 17 17 17 18 18 17
1 1 2 4 4 5 5 3 3 3 1 2 5 5 5 7 6 6 3 4 4 3 2 4 7 4 3 8 16 16 17 16 14 14 12 12 15 15 14 14 13 13 14 14 14 14 14 14 16 19 20 21 21 20 21 25 26 26 27 26 26 25 24 23 23 23 22 22 23 24 23 22 21 21 21 21 21 20 20 19 18 18 17 16 16 15
2 2 4 2 3 5 6 4 6 7 5 4 6 5 6 8 5 5 4 6 5 5 2 3 11 11 4 8 14 15 17 16 15 16 15 14 15 15 15 16 16 15 14 14 14 14 15 15 16 19 21 22 23 22 23 26 27 27 27 27 27 26 25 24 23 22 23 24 24 24 23 23 22 21 21 21 21 21 21 21 20 20 19 18 18 18
4 2 5 4 5 3 3 5 9 12 9 5 6 7 7 10 7 6 5 6 5 8 5 5 10 12 8 10 15 14 15 16 15 15 15 15 16 16 17 18 17 17 16 16 16 16 16 15 16 19 21 23 24 25 25 26 26 26 27 27 27 27 26 25 23 23 25 25 25 24 24 24 23 22 21 21 21 21 21 21 21 21 20 21 21 19
4 2 3 1 3 1 2 5 4 12 13 7 7 8 7 8 9 8 5 2 5 9 11 9 7 6 5 9 12 11 12 13 13 13 14 16 16 17 18 18 17 17 17 17 17 16 15 16 17 20 22 23 24 26 27 26 26 26 27 28 28 28 27 25 24 26 27 25 25 26 25 24 24 23 23 22 22 22 22 21 21 21 21 21 20 17
4 1 3 3 2 1 2 3 4 3 8 9 9 10 8 7 7 7 6 3 4 5 9 11 8 4 3 6 8 10 12 14 14 14 14 14 15 16 16 16 16 16 16 16 15 15 16 17 17 20 22 24 25 27 28 27 26 27 28 29 29 28 27 25 26 28 28 26 26 26 26 25 25 24 24 23 23 23 23 22 21 21 21 21 19 16
4 0 3 4 1 2 1 1 5 5 3 2 6 9 9 6 4 3 5 5 5 5 7 9 8 6 6 8 10 10 13 15 15 15 14 12 14 16 16 16 16 16 16 15 14 14 16 17 16 20 23 24 26 28 28 28 27 27 28 29 28 28 26 27 28 29 28 27 27 27 27 26 26 25 24 23 23 23 23 23 22 20 20 20 18 16
4 3 2 2 2 1 3 4 5 6 6 3 3 6 6 5 3 1 2 4 6 7 7 5 5 6 10 13 13 12 13 15 15 14 13 13 14 15 16 17 17 17 16 16 15 15 16 17 19 24 25 25 27 29 30 30 29 27 29 29 28 28 28 28 29 29 29 28 28 27 28 27 27 26 24 23 23 23 23 23 22 20 19 19 18 17
3 4 1 0 2 1 3 5 6 5 3 2 6 4 1 2 2 1 3 4 4 5 6 5 5 8 12 14 15 15 15 15 15 14 14 16 15 14 16 16 17 17 16 15 16 16 16 18 22 26 26 27 30 32 32 31 29 29 30 29 28 29 30 30 29 29 29 28 28 28 29 28 27 26 25 24 24 24 24 23 21 20 19 18 18 17
3 3 1 1 2 1 2 6 6 1 3 6 7 4 2 5 6 3 2 4 5 7 7 8 9 11 12 12 14 14 13 13 14 14 15 16 16 16 16 15 16 16 16 15 15 16 17 20 23 24 25 29 33 33 32 31 30 30 30 28 29 30 31 31 29 28 29 29 29 28 27 26 27 27 26 25 24 24 24 22 21 20 18 17 17 17
2 2 1 1 1 1 2 4 2 4 5 5 5 3 2 5 7 7 5 5 4 8 7 6 8 11 12 11 11 11 11 12 10 10 12 14 15 16 16 16 17 16 15 16 16 17 20 23 24 25 26 30 33 33 33 33 33 31 29 29 30 31 30 30 29 29 30 29 28 27 26 27 28 27 26 25 24 23 22 21 21 20 18 17 17 16
3 2 1 1 1 3 3 2 1 2 5 6 5 3 1 3 3 4 1 6 5 5 7 6 6 9 10 10 11 12 13 12 7 5 9 13 13 14 15 15 16 16 16 19 22 24 26 26 26 27 28 32 34 34 35 35 33 32 31 30 31 30 29 29 29 30 30 28 27 27 28 28 28 27 26 25 24 23 22 21 20 19 18 17 17 16
4 3 4 2 1 2 5 2 2 2 3 5 7 7 1 3 3 4 4 4 8 2 6 9 8 8 8 9 13 15 12 10 6 6 9 11 12 12 12 13 16 18 19 22 25 27 28 28 27 28 30 33 34 35 35 34 33 33 32 30 30 30 29 29 30 30 29 28 29 29 28 28 27 27 26 25 24 23 22 21 20 18 17 17 17 17
6 2 4 4 1 1 4 3 1 2 3 7 8 7 3 4 5 6 4 3 7 4 1 8 11 10 11 11 13 13 10 7 7 7 9 12 12 12 13 13 15 20 23 26 27 26 28 29 28 28 30 32 33 34 34 33 33 32 30 29 30 30 29 29 30 30 30 29 30 29 28 27 27 27 26 25 24 23 21 20 19 18 16 16 16 16
7 2 2 2 2 1 3 2 1 2 5 6 5 4 1 4 8 8 2 6 7 6 5 4 9 10 13 14 12 10 8 7 7 7 11 14 13 13 15 16 17 20 23 27 29 29 30 30 29 29 29 29 32 34 34 33 32 30 29 30 31 29 29 30 30 30 30 30 29 29 28 27 27 26 25 25 24 22 21 21 20 19 18 17 16 14
3 0 2 3 1 2 2 2 1 1 5 4 3 3 2 5 8 5 6 7 5 7 7 2 8 11 14 14 10 7 6 6 8 11 14 16 14 13 16 20 23 26 27 28 29 30 30 30 30 31 30 30 33 35 34 33 30 29 30 30 29 29 29 30 30 31 31 30 29 29 28 28 27 26 25 24 23 22 21 20 20 20 20 19 16 14
0 1 1 3 1 1 1 2 2 2 5 2 4 4 5 6 3 4 6 3 5 7 7 1 10 12 12 10 7 5 4 7 13 16 16 16 15 14 15 19 21 24 27 29 29 30 29 28 29 30 29 31 33 33 33 31 28 29 30 29 28 30 31 30 31 32 31 30 30 29 29 27 27 26 24 23 21 20 20 19 18 19 19 17 14 13
2 2 1 2 2 1 1 2 2 2 5 5 3 4 4 3 5 6 1 4 6 6 5 4 8 9 9 9 6 6 8 9 13 15 14 14 15 15 16 18 19 21 24 27 28 29 29 27 27 28 29 30 31 31 32 31 29 29 29 28 29 32 32 32 33 32 31 31 30 30 29 27 26 25 24 23 22 21 20 19 17 18 17 15 13 13
1 2 2 2 1 2 2 0 2 4 3 4 1 2 2 1 4 4 4 3 4 6 5 6 7 6 9 11 9 9 11 11 12 15 14 13 14 15 15 17 20 22 25 27 28 29 29 27 26 27 28 29 29 30 32 32 31 29 28 28 31 33 33 33 33 32 32 32 31 30 29 27 26 25 23 23 21 20 21 19 18 18 18 16 15 14
2 2 4 2 2 1 4 4 3 2 1 1 1 2 3 3 3 5 6 3 3 4 3 5 7 6 8 11 10 10 11 11 13 14 14 14 14 14 15 17 21 24 26 27 28 29 29 28 28 28 27 27 29 30 32 33 32 29 29 31 34 35 35 34 33 33 33 32 31 30 28 26 25 24 23 22 20 19 20 19 18 17 17 16 15 15
1 1 1 2 2 2 2 1 1 2 4 4 5 5 6 5 5 5 6 4 3 3 3 5 7 7 8 10 10 9 9 11 12 12 13 14 13 13 15 16 20 25 26 26 27 28 28 28 28 28 27 28 29 30 31 32 31 30 31 34 36 36 36 35 34 33 33 32 31 29 27 26 26 24 22 21 19 18 18 17 16 15 15 15 14 14
3 5 4 2 3 3 2 3 2 3 3 4 5 5 6 7 6 6 5 4 2 4 6 6 7 7 8 9 10 10 9 11 11 10 10 12 13 13 14 14 18 23 26 26 27 28 28 27 27 26 27 28 29 30 31 30 30 31 34 35 37 36 36 35 34 33 33 32 31 29 28 27 26 24 22 20 19 18 17 16 15 14 14 14 14 14
3 3 3 2 2 4 2 3 3 3 3 2 4 4 5 6 6 7 5 3 3 4 6 7 7 7 6 7 10 11 11 10 11 11 11 11 12 12 12 14 19 23 24 27 30 29 26 25 26 26 27 27 28 30 31 30 31 34 36 37 37 37 35 35 35 34 33 32 30 28 28 27 26 24 23 21 20 18 16 16 15 15 14 14 14 14
2 2 2 2 3 3 0 2 4 6 5 5 6 6 5 5 6 6 6 6 5 6 6 7 7 6 6 7 9 11 11 10 11 13 12 11 11 11 12 16 21 24 24 28 31 30 26 25 26 28 27 27 28 31 31 31 32 35 37 38 37 37 36 35 34 34 33 31 30 29 28 27 26 24 22 20 19 17 16 15 15 14 14 14 13 14
1 2 2 3 4 1 3 3 0 3 1 3 3 4 5 6 5 4 5 5 5 4 5 7 7 6 7 7 8 10 10 10 11 13 13 11 11 13 16 19 22 23 25 27 29 28 27 26 28 29 28 27 29 31 31 32 34 36 38 37 36 37 37 35 34 33 32 31 30 30 29 27 24 22 20 19 20 19 18 16 12 11 12 13 13 13
1 1 0 3 3 3 4 4 2 4 3 3 3 3 4 4 3 3 2 2 3 3 5 7 7 7 7 7 8 11 11 10 12 14 12 10 12 17 21 23 23 22 25 26 25 24 26 27 29 29 29 28 29 31 32 33 34 37 37 36 36 37 37 35 34 33 31 30 30 30 29 27 23 21 21 22 22 21 19 16 12 10 10 11 12 12
Wind_Direction
197 211 221 214 211 207 212 224 232 237 239 231 205 199 205 212 230 213 212 217 190 181 198 199 176 156 157 156 148 141 132 130 134 133 128 126 125 127 128 118 106 101 104 108 114 125 130 134 138 137 138 139 141 148 150 148 151 154 154 152 154 164 165 156 152 156 159 156 152 150 146 140 139 139 133 121 111 107 102 90 83 78 68 62 75 81
197 221 222 214 209 206 209 221 233 236 239 243 222 203 202 206 230 230 226 219 188 176 189 197 189 161 157 152 148 142 136 142 144 137 131 128 130 131 127 118 107 105 111 112 114 123 124 128 136 137 137 138 142 147 146 143 144 148 151 151 156 162 162 160 156 153 156 158 160 155 144 140 139 135 127 118 112 108 103 90 83 79 70 67 73 77
206 226 214 203 204 212 214 214 227 238 239 247 236 219 204 195 215 236 243 234 189 170 180 196 196 154 151 147 146 142 136 146 145 138 136 136 138 135 127 120 114 117 121 121 117 117 118 125 135 136 135 138 142 145 141 140 142 143 148 152 156 160 162 164 158 149 148 150 160 158 143 137 135 129 120 116 114 107 100 92 86 82 79 81 79 77
206 222 197 194 204 215 219 207 217 238 243 246 234 232 233 201 194 212 246 241 189 169 171 183 171 122 138 128 131 135 125 132 130 127 132 136 135 125 120 118 121 127 130 128 122 119 120 123 131 138 141 138 138 142 141 142 144 144 149 155 157 160 162 162 154 147 145 144 151 153 143 136 129 123 119 117 114 105 98 91 89 87 88 92 89 88
211 183 178 208 214 212 216 202 206 225 239 242 234 228 240 230 202 192 234 234 177 177 164 150 109 100 152 138 138 138 115 122 119 116 115 114 115 110 111 114 122 133 138 139 137 139 135 129 133 140 145 141 137 145 149 149 148 147 151 156 158 158 157 157 153 149 147 144 145 147 142 133 123 121 124 122 114 105 101 97 95 95 94 96 96 96
216 171 177 209 219 209 211 206 205 211 229 245 238 227 235 250 234 202 218 193 148 198 178 137 114 271 189 151 152 149 127 134 128 119 114 107 107 108 116 123 130 137 139 141 141 144 142 135 138 144 149 146 142 151 157 154 151 149 151 155 158 158 156 156 155 154 153 150 150 151 146 137 130 126 127 123 115 111 111 106 104 105 103 103 101 99
210 184 184 205 211 203 208 218 213 208 216 240 232 225 233 247 260 242 225 177 150 206 194 145 128 172 226 174 166 157 143 146 138 123 119 112 107 115 135 142 144 143 139 136 135 137 139 141 146 151 154 150 146 154 159 156 151 148 149 152 154 155 155 155 153 154 155 152 153 153 146 139 134 127 120 116 114 117 120 116 114 114 109 105 101 99
200 191 192 202 203 199 205 218 215 205 208 236 233 227 232 237 249 259 246 192 170 178 191 170 127 126 208 205 176 158 143 143 140 129 122 118 124 142 154 149 145 145 144 141 136 137 144 150 152 155 156 153 150 153 154 150 147 146 146 147 149 150 152 151 147 150 153 150 150 148 138 129 124 119 116 117 120 124 125 119 116 115 109 105 102 99
201 199 192 196 204 203 205 214 213 205 206 229 239 234 238 237 238 253 263 213 165 150 200 203 141 131 184 190 173 155 147 151 147 137 129 128 142 157 158 149 145 142 142 139 137 142 148 150 148 149 150 147 147 149 146 142 139 138 135 134 136 141 147 146 138 141 147 146 146 143 131 120 116 117 120 125 127 126 123 117 113 112 106 101 99 94
199 211 196 193 205 208 203 209 215 214 207 215 235 242 242 241 239 242 242 213 159 157 201 203 167 139 156 181 171 154 160 166 149 138 135 140 156 166 163 159 150 140 136 133 134 139 140 139 140 140 138 136 140 143 140 136 133 131 128 124 123 127 132 132 128 129 133 136 137 134 127 123 122 123 125 125 121 118 119 119 115 110 102 95 88 79
199 212 210 198 201 206 201 204 216 222 209 202 226 246 245 239 255 258 213 172 153 197 211 193 178 160 157 193 180 170 178 169 147 141 144 151 165 170 164 158 147 139 134 131 133 133 130 132 136 135 130 131 135 137 135 134 132 129 125 120 116 119 123 121 121 123 126 130 131 128 125 124 124 125 123 118 114 115 119 118 113 105 96 87 73 63
210 202 214 204 191 199 204 200 215 225 217 208 218 232 238 243 296 311 307 96 172 246 230 186 184 179 174 198 199 196 179 160 150 150 153 161 169 166 159 154 146 140 135 135 138 134 131 134 138 134 131 133 136 136 136 135 132 128 124 120 115 116 120 119 119 120 121 123 123 123 121 118 118 118 114 111 110 113 115 111 106 100 92 79 70 71
222 201 204 201 185 194 204 193 208 222 218 220 219 207 203 194 199 233 258 197 200 253 212 176 188 210 192 183 191 195 171 156 152 152 156 160 163 161 160 155 147 140 137 141 143 140 140 142 142 139 137 140 141 141 140 136 132 128 125 122 117 114 118 119 119 117 115 114 114 115 115 115 116 114 112 111 108 109 110 106 102 96 84 75 77 76
223 208 199 195 179 191 207 191 195 212 208 216 214 179 172 162 171 213 216 163 207 277 209 164 165 223 218 179 179 177 168 155 149 153 158 158 159 162 162 153 146 144 141 144 146 144 145 144 144 144 142 144 146 145 142 136 130 126 124 123 118 115 118 119 118 116 113 111 112 114 114 114 115 114 113 110 108 109 106 102 99 88 78 84 84 71
202 205 193 196 175 184 207 206 193 196 196 215 212 165 183 179 160 191 180 155 181 272 236 119 94 192 210 194 175 170 166 151 146 155 156 155 159 158 153 149 147 148 145 145 148 146 145 146 146 145 143 145 146 144 140 132 128 124 121 122 119 116 118 118 118 117 114 113 115 116 114 112 113 114 113 110 109 109 103 100 96 84 81 89 83 68
209 209 187 201 187 178 202 217 197 185 185 214 209 178 221 216 144 147 170 169 154 127 254 147 111 217 220 179 159 156 156 147 142 147 146 151 157 148 146 152 150 151 149 147 149 146 144 146 146 143 142 143 142 139 134 130 127 124 121 120 118 116 118 118 118 117 115 115 116 115 113 112 112 114 113 110 108 107 104 99 93 90 92 91 83 76
204 216 178 193 202 186 197 217 205 180 168 200 202 195 221 210 140 121 169 231 98 115 243 218 110 342 39 63 125 135 142 143 138 141 146 152 153 146 150 155 152 152 151 148 150 148 145 146 145 143 142 142 140 135 131 128 128 125 122 120 118 117 119 119 120 118 117 117 116 116 113 111 112 115 115 115 114 111 106 97 95 99 99 93 88 87
175 213 182 188 205 199 191 218 227 208 156 180 194 212 220 204 170 120 124 337 77 124 256 196 153 150 110 63 326 118 131 140 140 141 147 152 152 150 152 153 152 151 148 146 147 146 145 145 145 144 143 143 140 135 129 127 127 127 125 123 120 119 120 121 122 120 119 119 117 116 115 112 113 115 115 116 117 116 112 108 107 106 100 95 96 94
164 155 201 189 193 196 142 171 234 255 267 204 179 194 194 175 199 165 144 166 134 146 281 200 164 166 136 164 211 139 135 142 144 144 150 157 156 153 151 150 149 147 146 146 147 147 147 147 147 144 143 142 139 135 130 127 129 129 128 126 123 122 123 125 126 123 122 121 118 119 118 116 115 114 114 115 118 121 121 120 118 111 104 102 103 99
180 129 208 189 173 165 104 127 194 241 270 241 191 190 187 149 165 182 161 159 145 156 247 226 171 205 188 166 163 156 148 147 150 153 158 161 157 154 154 152 150 151 151 150 148 149 149 147 146 143 141 140 138 136 133 131 132 131 131 130 128 128 128 128 129 128 126 124 123 123 122 121 120 120 122 125 128 126 120 116 115 111 107 104 102 99
125 118 157 198 144 118 175 188 185 190 220 226 200 193 198 166 151 171 180 164 145 151 181 191 207 235 228 166 155 155 154 154 156 157 159 159 155 156 157 154 154 154 152 151 148 148 147 145 144 142 140 137 135 136 136 133 133 134 135 136 133 132 131 130 130 131 130 130 130 130 129 129 132 133 132 132 131 127 118 114 113 112 109 105 100 98
92 105 136 177 166 178 216 220 204 210 222 206 186 191 185 161 135 138 245 205 148 149 163 154 209 263 280 164 154 156 158 159 155 151 153 156 155 158 158 155 155 153 151 150 147 145 145 145 144 141 140 138 136 138 138 135 135 136 136 138 136 133 131 131 131 131 133 135 135 136 137 136 137 137 133 129 125 121 117 114 113 112 110 107 102 100
116 106 131 162 191 201 213 221 211 222 235 205 196 215 174 157 133 131 174 207 177 177 172 143 170 263 283 182 157 156 156 154 150 149 151 155 157 157 155 153 149 148 148 147 144 143 143 144 143 142 144 142 138 140 141 138 139 138 137 139 138 134 134 135 135 135 137 138 137 137 138 137 136 132 127 124 121 119 118 116 114 113 111 108 105 103
85 87 139 157 192 193 203 225 219 223 235 204 198 207 180 190 184 157 165 183 183 191 173 136 165 260 287 170 142 135 137 141 145 149 148 150 156 155 153 151 145 144 145 143 142 141 140 142 142 144 147 144 139 142 143 142 142 141 141 142 141 138 139 139 139 141 141 136 133 134 133 130 129 127 124 123 123 123 122 120 118 116 114 113 109 105
116 158 136 133 129 162 187 222 229 226 237 216 196 195 198 201 187 201 240 115 178 206 160 128 174 247 288 129 134 130 132 138 145 149 145 145 151 152 150 148 143 142 143 142 143 141 141 143 144 146 148 146 145 145 142 143 146 146 144 144 143 141 141 141 142 143 139 133 132 133 131 128 127 126 125 125 124 123 123 123 123 122 119 116 110 104
177 184 132 126 140 166 185 212 216 215 234 264 222 191 207 223 193 203 225 98 203 232 153 127 176 247 336 112 140 143 138 139 142 142 140 140 144 146 146 143 141 143 144 145 146 146 145 145 145 147 148 149 152 149 142 144 148 146 143 144 143 142 143 143 143 143 143 140 137 133 131 130 130 127 127 126 125 124 124 125 125 122 119 115 109 102
139 205 173 140 163 178 186 211 187 180 177 228 240 214 213 236 202 168 145 150 188 203 168 157 150 144 34 115 141 146 140 141 144 141 138 137 139 141 142 141 141 144 146 148 148 149 149 147 148 150 152 154 157 153 144 144 144 142 141 142 144 144 143 144 146 147 147 144 137 133 132 133 132 131 130 129 129 127 125 124 124 122 118 115 111 105
70 262 236 211 227 198 184 193 175 184 208 207 219 224 231 244 216 131 158 201 168 130 201 200 140 143 168 143 140 144 144 146 147 144 144 142 142 141 140 141 143 145 149 151 151 153 152 149 150 154 157 157 156 150 144 143 143 142 141 142 145 146 144 148 151 148 144 140 137 135 136 136 135 133 132 132 131 130 127 125 125 124 123 120 116 110
113 235 232 224 263 239 187 221 187 183 204 215 209 211 223 245 231 157 178 214 142 124 178 198 153 155 169 153 147 148 148 146 143 142 143 143 143 143 143 146 148 151 154 156 157 157 156 153 155 158 159 157 152 146 144 145 144 142 141 143 146 147 149 154 154 146 142 141 140 139 138 137 136 134 134 133 131 130 128 125 124 122 123 122 118 111
100 253 258 227 281 0 61 296 228 180 190 199 217 223 224 241 227 177 168 199 117 131 158 166 159 157 153 152 152 142 132 131 130 134 139 142 145 146 147 150 152 156 160 161 161 159 157 155 157 158 157 156 152 146 146 148 147 145 145 146 149 153 158 160 154 146 144 143 141 140 139 138 137 134 133 132 132 132 130 128 126 121 117 117 116 112
89 237 305 26 349 262 156 311 334 161 182 186 206 228 232 241 233 186 162 137 84 121 152 146 138 139 128 122 119 113 118 123 129 138 143 145 147 148 150 153 155 158 161 162 162 159 156 156 157 158 158 157 154 148 147 151 151 149 149 150 155 160 163 159 150 145 145 144 142 142 140 138 138 136 135 133 132 132 131 130 128 123 118 116 114 110
111 172 340 53 56 269 154 31 350 8 36 152 207 229 226 218 230 203 168 155 135 120 122 126 136 155 145 119 108 116 128 131 137 144 144 145 149 150 154 158 159 161 162 162 161 158 159 158 156 159 161 158 153 150 150 154 154 152 152 155 160 162 160 154 148 146 147 145 144 143 142 141 139 137 136 135 133 131 130 130 128 125 122 118 114 114
122 100 14 85 124 279 76 54 0 16 38 12 273 256 232 198 184 162 123 150 155 136 126 147 188 178 150 133 127 134 140 142 148 151 147 150 156 158 161 162 162 164 164 163 161 160 163 161 157 161 164 159 154 152 154 157 156 155 156 159 162 160 155 151 150 149 149 148 147 145 143 142 139 136 135 134 134 133 132 131 128 125 125 122 119 120
95 109 160 155 99 154 129 82 32 34 69 248 262 273 307 92 109 167 176 175 163 141 139 146 150 149 145 140 142 151 157 156 156 157 157 159 161 164 165 164 164 165 164 164 161 160 162 162 160 162 162 157 154 154 156 157 156 156 159 162 161 157 152 152 153 152 150 148 146 144 143 142 139 136 134 132 133 133 132 129 127 126 127 126 124 121
57 82 296 296 109 150 115 81 55 3 220 237 258 270 44 65 65 51 243 204 154 128 118 111 124 146 154 151 153 156 156 153 153 157 163 164 163 163 163 165 166 165 164 164 161 159 162 161 161 161 158 154 154 154 155 157 157 158 161 162 158 153 153 154 154 152 148 144 144 144 145 144 140 137 135 135 135 133 130 128 127 125 125 126 126 123
106 114 343 321 125 107 69 91 132 236 257 281 297 309 36 60 60 46 352 285 184 137 122 116 135 158 160 151 148 144 136 136 142 154 163 165 166 164 162 166 168 166 164 162 158 158 161 161 162 161 157 153 152 152 154 157 160 161 160 157 154 153 155 155 151 147 144 143 145 148 147 145 142 140 139 139 138 135 133 132 130 128 126 125 126 126
165 155 120 353 69 114 114 132 188 320 328 322 313 306 89 95 103 111 97 280 255 159 146 149 145 158 162 147 137 133 127 123 129 168 176 171 169 166 161 162 164 161 158 158 158 159 161 163 164 162 155 152 152 154 156 159 161 159 156 154 153 155 155 151 145 143 144 145 147 149 148 146 144 142 141 140 137 135 134 134 133 133 132 129 129 132
208 184 146 140 252 135 114 79 26 26 324 271 265 276 281 97 109 128 119 291 290 266 166 179 173 161 156 141 136 136 128 125 152 197 189 171 163 156 149 150 155 155 154 156 158 160 162 163 163 158 151 150 154 157 158 159 157 154 153 154 154 154 151 147 144 145 147 149 151 150 149 147 144 141 140 138 136 135 136 137 138 139 138 134 131 129
221 206 107 103 340 170 126 108 115 155 251 249 242 261 285 76 76 78 79 284 286 334 71 192 188 169 149 143 144 139 131 146 187 201 179 164 157 150 144 144 151 155 157 158 160 162 163 162 159 155 150 150 155 159 158 156 154 152 153 153 151 150 149 147 148 150 151 153 153 150 147 145 143 141 140 139 139 139 140 142 143 144 143 140 135 128
223 259 69 96 317 303 136 116 111 184 258 253 211 204 218 83 77 83 125 255 276 333 337 212 182 161 149 149 152 151 156 179 196 183 162 154 150 150 149 148 151 155 158 161 163 164 163 160 158 157 155 152 155 158 157 154 154 153 152 151 150 150 152 153 153 154 153 152 150 148 147 146 144 142 141 141 141 142 143 144 146 149 149 144 139 134
220 172 122 165 247 351 128 133 93 246 258 243 156 132 105 70 66 98 199 240 288 324 312 224 150 148 151 153 158 171 183 171 147 145 149 147 146 149 149 148 150 153 157 161 164 163 161 160 160 160 158 155 155 158 158 156 155 153 152 152 151 153 156 156 155 154 152 151 149 148 147 146 144 143 142 143 144 146 147 149 150 152 150 144 142 141
190 86 109 157 155 331 208 154 100 280 273 252 122 94 67 75 91 218 224 262 333 329 316 148 140 147 147 143 144 151 151 137 135 142 148 146 144 145 143 143 146 150 155 159 161 162 160 160 160 159 158 157 156 157 158 157 154 152 153 153 154 157 158 157 154 153 153 151 149 147 146 145 145 145 145 146 147 146 145 146 147 147 145 145 150 151
166 136 164 201 181 149 56 61 102 211 281 325 47 61 51 95 196 217 256 8 356 341 350 90 129 139 132 125 122 119 119 120 127 134 137 137 139 142 144 146 147 150 154 157 160 162 160 158 158 158 158 159 158 157 159 157 154 153 155 156 157 159 158 156 154 153 151 149 147 146 146 146 147 147 146 146 146 143 141 140 142 144 145 150 157 157
56 125 166 216 200 122 122 225 204 200 251 322 8 147 130 158 188 157 96 40 7 1 19 81 104 114 121 124 124 117 116 119 124 128 130 135 140 143 145 148 149 152 156 158 161 163 161 158 157 156 158 161 161 161 161 158 155 156 157 158 158 158 156 155 153 152 149 147 146 146 147 148 148 148 148 149 148 148 147 147 147 148 148 149 151 153
291 192 159 129 28 99 160 194 223 208 166 30 83 112 81 53 71 101 102 86 47 28 38 91 97 97 107 115 118 116 121 130 135 134 136 142 146 146 147 150 153 155 158 160 162 164 163 159 157 156 158 161 161 162 162 160 158 159 159 159 158 156 154 153 152 150 148 147 147 148 149 149 149 149 149 150 151 151 153 157 160 161 159 158 157 157
295 333 112 110 67 59 96 174 159 49 27 28 42 52 54 44 34 58 79 80 60 53 73 99 104 106 111 116 119 121 129 136 135 133 138 142 145 146 145 148 153 156 159 161 162 164 163 160 158 158 159 161 160 160 162 163 163 162 159 158 158 156 154 154 152 150 148 148 149 151 151 151 151 151 152 153 155 155 155 159 164 166 167 168 165 160
5 18 33 88 119 102 23 321 358 68 36 13 27 37 46 42 22 28 72 101 93 71 87 104 111 109 110 116 121 126 134 135 128 125 132 138 142 144 145 148 154 159 161 161 162 164 163 163 162 160 160 162 163 162 163 166 166 162 158 157 157 156 156 155 152 150 150 151 152 155 156 155 154 155 156 157 159 160 161 162 162 160 159 159 157 152
316 21 32 21 98 124 151 294 347 52 61 38 42 45 53 51 27 13 29 65 74 73 84 100 112 113 110 114 124 132 138 138 132 130 133 139 143 146 149 152 156 160 161 161 163 166 166 164 165 162 161 163 164 164 166 166 165 162 159 158 158 158 157 156 153 152 152 154 156 158 158 157 157 158 160 162 165 168 167 165 163 158 151 152 157 156
291 10 14 25 51 71 98 314 5 33 27 18 36 49 54 59 47 11 353 9 46 71 84 89 99 113 111 108 122 135 140 140 136 134 136 140 143 146 151 153 156 160 163 163 167 170 169 165 165 164 164 166 166 166 166 166 164 162 161 159 160 161 158 155 154 154 155 157 160 161 160 160 162 164 165 167 168 166 161 158 158 153 146 146 155 161
21 14 359 51 67 34 262 263 307 97 71 326 358 34 42 54 57 12 342 357 28 60 95 98 92 93 94 95 112 128 133 137 137 136 139 144 145 147 151 153 156 160 164 166 168 171 170 168 166 166 167 169 168 168 167 165 164 163 162 162 163 162 159 155 154 156 160 163 164 163 162 163 166 165 162 159 155 147 141 141 148 154 152 150 151 156
55 274 322 108 134 188 200 207 184 128 140 249 290 347 19 47 52 3 8 46 31 41 95 105 102 96 86 86 110 124 127 133 138 138 140 145 146 147 152 156 158 160 164 168 170 169 168 169 169 170 172 173 171 169 167 165 164 163 163 164 165 163 160 158 157 160 164 166 165 164 164 165 164 160 155 153 150 146 140 136 137 146 158 163 163 164
Height
738 747 748 742 738 735 735 736 737 735 732 731 733 737 739 742 740 731 726 719 717 731 738 736 742 751 754 752 751 753 755 759 762 765 769 772 776 779 781 783 785 787 790 793 795 797 798 798 799 801 801 802 802 803 804 803 803 804 805 806 808 810 814 819 822 825 827 828 829 830 831 830 830 831 833 835 837 838 839 840 841 841 841 842 844 845
739 746 740 732 732 731 732 733 733 733 731 731 733 734 736 738 735 726 720 715 712 727 737 733 739 750 750 750 750 749 755 760 761 764 769 771 775 777 780 784 786 788 791 793 796 797 798 800 801 803 804 804 805 805 805 804 804 805 806 807 809 810 814 818 821 824 825 826 827 828 828 828 829 831 833 834 836 836 838 839 840 841 842 844 845 844
742 737 729 728 729 728 730 730 732 733 731 733 733 734 737 732 731 727 717 712 710 723 736 732 738 751 749 748 749 749 753 758 758 760 765 768 772 776 780 784 786 789 792 794 795 797 798 800 802 804 805 806 807 807 806 805 805 806 807 809 810 811 813 817 820 822 824 825 825 826 826 826 828 830 832 833 834 835 837 839 840 842 845 845 844 844
741 732 726 726 726 728 731 729 731 734 733 733 733 737 738 728 729 734 721 712 710 716 727 730 741 754 753 753 753 751 752 756 758 759 761 764 769 775 780 783 786 789 792 794 796 797 798 800 802 804 805 806 808 808 807 806 805 806 808 810 811 812 813 816 819 821 823 824 825 825 825 825 827 828 830 831 833 835 837 839 841 843 844 844 845 847
732 726 723 724 724 727 730 729 730 737 738 732 728 732 734 724 722 726 718 712 712 714 715 730 760 768 758 759 760 754 755 759 761 762 764 767 770 776 781 784 787 788 790 793 795 797 798 800 801 803 805 807 807 808 807 807 806 806 808 810 811 812 814 816 818 820 821 823 824 825 825 826 826 828 829 830 832 836 838 839 840 843 845 846 848 849
726 720 718 724 724 722 727 728 727 733 739 735 724 721 724 721 718 715 712 714 726 731 717 727 773 785 762 759 762 757 760 764 764 765 769 773 775 779 783 786 788 789 790 791 793 796 798 800 801 802 804 806 807 808 808 809 808 808 809 810 811 812 814 816 818 819 820 821 823 824 824 826 827 828 830 831 833 837 838 840 842 844 847 848 849 850
720 714 714 720 721 721 725 728 723 725 737 737 721 713 715 717 719 715 711 719 735 738 718 714 756 785 773 763 761 757 763 766 764 768 773 776 781 782 783 785 788 790 792 793 794 796 799 801 801 802 803 805 807 808 810 811 810 810 810 811 812 813 814 816 817 818 819 820 822 823 824 826 827 829 831 833 834 836 839 842 844 846 848 849 850 850
713 712 714 715 718 721 725 726 718 716 731 731 713 708 714 714 718 718 713 720 725 723 719 711 732 773 781 766 758 756 763 769 767 770 776 779 782 782 781 784 787 789 791 793 795 797 799 801 802 802 803 805 807 809 810 811 811 811 811 812 813 814 815 816 818 819 820 821 822 824 825 826 828 829 831 834 836 839 841 844 846 847 849 849 849 849
707 711 713 712 718 721 719 718 712 711 722 720 707 706 710 710 713 713 714 719 715 720 734 723 722 760 778 763 755 757 763 770 770 772 778 780 780 780 781 784 785 787 790 791 794 796 798 801 802 803 804 806 808 810 811 812 813 813 812 813 814 815 816 818 819 820 821 822 824 825 825 827 829 831 833 836 839 841 843 844 846 847 848 849 849 849
704 704 704 708 715 715 711 709 707 709 714 709 704 705 706 707 706 708 715 718 718 728 741 729 719 747 773 766 757 762 766 767 770 774 778 778 777 778 780 782 783 785 788 790 793 796 798 800 802 804 805 807 809 811 812 813 814 815 814 814 815 816 818 819 820 820 822 824 825 826 826 827 830 832 835 837 840 841 843 844 846 846 847 848 848 848
698 696 697 700 704 705 704 704 702 704 705 703 705 708 708 707 705 709 712 713 729 741 736 724 714 731 766 773 756 754 754 752 761 773 778 776 774 776 779 779 780 783 786 790 793 796 799 801 803 805 806 808 811 812 814 815 816 817 816 815 815 817 818 819 820 821 822 824 825 826 826 827 829 832 834 836 838 841 842 844 845 846 847 847 847 848
697 697 697 692 692 696 699 702 700 698 699 702 707 711 717 717 714 720 720 720 742 750 730 716 710 721 755 769 752 740 736 737 749 763 771 772 772 775 777 775 777 780 783 788 792 795 799 802 804 806 807 809 811 813 814 816 817 817 817 815 815 818 819 819 819 820 822 823 824 825 825 826 829 831 833 835 837 840 842 843 844 845 846 846 847 848
702 696 692 689 687 689 698 705 704 701 701 704 707 713 727 733 734 741 740 737 745 741 721 709 714 725 737 742 739 735 734 735 742 751 759 764 768 772 772 772 775 778 782 788 791 795 798 801 804 805 807 809 811 813 815 816 817 817 817 816 816 818 819 819 819 820 821 822 823 824 824 826 828 829 831 834 836 839 841 842 844 844 845 846 847 848
710 698 687 690 689 685 693 704 710 709 704 704 706 716 730 738 748 756 749 746 746 734 714 704 716 731 728 721 723 726 728 731 737 745 751 756 762 767 768 771 775 779 783 788 791 794 797 800 803 804 806 809 811 813 815 816 817 817 817 817 817 819 820 820 820 820 821 822 824 825 825 826 828 829 831 834 837 839 841 842 843 845 846 847 848 848
717 711 693 689 690 685 687 692 698 700 701 699 695 706 720 723 736 750 745 744 747 735 718 713 724 734 726 716 712 713 719 725 734 743 748 754 758 763 768 772 777 781 784 788 790 793 796 798 801 803 806 809 811 813 814 816 817 817 818 818 818 819 820 820 821 821 822 823 824 826 827 828 829 831 833 836 838 839 841 842 844 845 846 847 848 848
712 708 687 681 681 680 686 685 682 691 702 698 689 702 715 708 712 727 731 730 732 734 728 723 729 726 714 709 704 708 718 723 733 744 750 758 760 763 770 773 777 781 783 787 789 792 795 798 801 803 805 809 811 813 814 815 816 817 818 818 818 818 819 820 821 822 822 824 825 826 828 829 831 832 834 836 838 839 841 843 844 845 847 848 849 849
708 702 680 678 681 677 682 682 676 687 700 698 697 707 705 693 697 716 730 724 723 739 735 723 730 726 717 719 712 711 722 727 735 746 751 757 760 763 769 772 776 780 782 785 788 790 794 797 800 802 805 808 810 812 813 814 815 816 817 818 818 818 819 821 822 822 823 824 825 827 829 830 832 833 835 837 839 840 842 844 845 846 848 849 850 851
697 700 681 676 685 679 674 679 677 677 685 696 705 702 693 692 695 706 729 734 735 748 738 722 733 735 733 741 730 721 731 736 740 748 753 757 760 763 767 769 774 777 780 783 786 790 793 796 799 801 804 807 809 811 813 814 815 816 818 818 819 820 820 822 823 823 824 825 826 828 830 832 833 834 836 838 840 841 843 845 846 848 849 850 851 852
684 700 690 675 683 682 674 684 689 680 678 687 693 689 693 709 713 710 725 738 745 754 743 729 733 735 737 742 737 735 740 742 746 750 753 756 759 762 766 768 773 776 779 782 785 789 792 795 798 800 803 806 808 811 812 814 816 817 819 820 820 821 822 823 824 824 825 826 827 829 831 833 835 837 839 840 842 843 845 846 847 849 850 851 852 853
679 698 701 682 677 681 682 690 699 695 685 682 683 684 689 702 709 710 715 725 738 750 747 739 738 735 729 725 727 736 737 739 747 750 751 753 756 760 763 767 771 774 778 781 784 788 790 794 797 799 803 805 808 811 813 815 817 818 820 821 821 823 823 824 825 825 827 828 829 831 833 835 837 839 841 842 844 845 846 847 848 849 851 851 853 854
680 692 701 690 679 685 691 690 693 698 695 691 693 694 693 694 697 703 708 710 722 739 745 744 744 733 717 709 716 727 728 731 739 744 748 751 754 758 760 763 768 771 776 780 782 787 789 793 797 799 802 805 807 811 813 815 817 818 821 822 823 824 824 825 826 827 828 829 831 833 835 837 839 841 842 843 844 845 846 847 848 850 851 852 854 855
686 690 697 698 693 694 691 680 679 688 690 691 695 695 694 695 700 715 723 711 709 723 731 737 744 733 712 706 710 716 720 724 730 737 745 749 752 756 758 760 765 769 774 778 781 785 789 792 796 798 801 805 807 810 813 815 817 819 821 822 824 825 825 826 827 829 830 831 833 835 836 838 840 841 843 844 845 845 846 848 849 851 852 854 855 856
681 689 696 701 698 693 685 676 677 683 683 684 688 688 687 692 701 718 730 719 710 715 715 722 737 730 710 706 709 711 715 719 725 732 740 746 750 753 757 760 764 768 772 776 780 784 788 792 795 798 801 804 807 810 813 815 817 819 821 823 824 825 826 828 829 830 831 833 834 836 837 839 840 842 843 844 845 846 847 848 850 852 853 855 856 857
680 691 699 702 697 689 683 678 677 679 683 686 687 686 686 690 696 703 709 709 713 718 716 725 742 731 709 705 710 713 717 721 726 730 735 744 750 753 757 761 764 769 773 776 780 783 788 792 795 798 801 804 807 810 813 816 817 819 821 823 825 826 828 829 830 831 832 833 834 836 838 839 840 841 843 844 845 846 848 850 851 853 855 856 857 858
687 695 699 706 710 706 702 698 692 688 689 690 687 685 687 688 691 696 700 705 714 716 713 727 744 731 709 707 712 715 720 726 730 732 735 742 749 753 758 762 765 770 774 777 780 784 788 792 795 798 801 804 807 810 813 815 817 819 821 823 825 827 828 829 830 832 833 833 835 836 838 839 841 842 843 845 846 848 849 851 852 854 856 857 858 859
689 694 695 706 719 723 720 713 704 697 694 691 685 684 687 688 691 698 705 713 720 714 708 723 736 726 711 713 717 716 721 729 733 736 738 741 747 752 757 763 767 771 775 778 781 784 787 791 795 798 801 804 807 809 812 815 817 819 821 823 825 827 828 830 831 832 834 834 835 837 838 840 841 843 844 846 847 849 850 852 854 855 857 858 859 860
688 691 690 699 707 710 709 701 691 690 695 697 691 686 688 689 690 697 706 715 715 710 711 719 723 723 720 721 722 720 722 728 734 739 743 746 749 752 757 763 768 772 776 778 781 784 786 790 794 798 801 804 806 809 812 814 816 818 820 823 825 827 828 830 831 833 834 835 836 837 839 841 842 844 845 847 849 850 851 853 855 856 858 859 859 860
691 695 691 694 696 692 690 687 683 686 694 696 693 691 689 688 691 700 708 708 704 710 722 721 714 720 726 724 723 723 722 727 733 738 744 747 750 753 758 763 768 772 776 778 781 784 786 790 793 797 800 803 806 809 811 814 816 818 820 823 825 827 828 830 832 833 834 835 836 838 839 841 843 845 846 848 849 851 852 854 855 857 858 859 860 860
690 698 691 691 695 688 684 685 684 686 691 692 691 692 690 689 693 701 704 699 697 708 723 721 714 716 721 720 721 720 720 725 732 738 742 745 749 753 758 763 767 772 775 778 780 783 786 789 791 795 799 802 805 808 810 813 816 818 820 822 824 826 828 830 832 833 834 836 837 839 840 842 844 845 847 848 850 851 853 854 856 857 858 859 860 860
686 697 690 688 695 691 689 692 687 685 689 690 690 690 690 690 691 696 699 694 694 703 710 713 715 717 717 716 715 716 719 725 732 739 742 746 750 753 757 762 766 770 773 776 779 781 785 787 790 793 797 800 803 806 809 813 815 817 819 821 824 826 828 830 832 832 834 836 837 839 840 842 844 846 847 849 850 851 853 854 856 857 858 859 860 860
686 698 692 690 699 697 690 691 690 688 691 692 692 690 690 691 691 693 695 693 696 705 707 709 715 719 718 715 716 718 722 728 736 741 744 747 750 753 758 762 765 769 772 775 777 780 783 786 789 792 795 798 802 805 808 812 815 817 819 821 823 826 828 829 831 832 834 836 838 839 841 842 844 846 848 849 850 851 853 854 856 857 858 859 860 861
687 695 693 695 706 703 690 690 694 692 692 695 696 693 691 693 693 691 691 691 695 704 711 713 716 719 719 719 722 725 726 731 738 742 745 749 751 754 758 762 765 768 770 773 777 779 782 784 787 790 793 797 800 804 808 811 815 817 819 821 823 825 827 829 830 832 834 836 838 839 841 843 844 846 847 849 850 851 853 854 856 857 858 859 860 861
687 694 697 699 707 705 693 692 696 697 702 707 704 699 695 692 690 689 688 689 690 695 707 714 711 711 714 718 724 729 731 734 738 739 742 747 750 753 755 758 762 765 767 771 774 777 780 782 785 789 792 796 799 803 807 810 814 816 818 821 823 825 827 829 831 833 834 836 838 839 840 842 843 845 847 848 850 852 853 855 856 857 859 860 861 861
688 693 698 697 703 707 697 692 700 710 719 716 706 700 697 691 690 693 691 689 688 690 696 701 703 707 711 714 720 726 728 729 731 733 735 738 744 749 753 755 759 762 764 768 771 774 778 781 784 788 792 795 799 802 807 810 813 817 819 821 823 825 827 829 831 833 834 835 837 838 840 841 843 845 847 848 850 852 853 855 856 858 859 860 861 862
691 696 699 696 700 706 700 700 717 728 721 709 700 695 692 689 690 693 691 687 687 689 690 695 704 709 709 710 713 717 721 723 726 730 732 734 737 743 749 754 757 759 762 766 769 773 776 780 783 787 791 794 798 801 806 810 813 816 819 821 822 824 826 828 830 832 833 834 836 838 839 841 843 845 847 848 850 852 853 855 856 857 859 860 861 862
691 698 701 698 700 707 709 714 727 726 709 699 697 691 687 689 691 695 699 693 687 688 690 694 703 706 705 708 711 715 719 723 728 730 732 733 735 738 744 749 753 756 760 763 767 772 776 779 783 786 790 793 797 801 805 809 812 815 817 819 822 824 826 828 829 830 831 833 835 837 839 841 843 844 846 848 850 851 852 854 856 857 859 860 861 862
688 696 701 702 702 706 715 719 719 716 709 702 698 691 689 693 694 697 705 701 689 687 689 691 699 705 706 708 712 715 719 727 735 737 734 733 735 737 741 745 749 754 758 762 767 771 775 780 783 786 789 792 796 800 803 807 810 813 816 819 821 824 826 827 827 828 830 833 835 837 839 840 842 844 846 847 849 850 852 854 856 857 859 860 861 862
686 693 699 706 704 702 713 722 722 725 721 708 697 690 686 689 689 690 702 704 693 687 688 689 694 702 707 711 714 716 721 732 742 740 733 733 736 738 742 747 751 755 759 763 768 771 775 780 783 786 789 791 795 799 802 805 808 811 814 817 819 822 824 825 826 828 830 833 835 837 838 840 841 843 845 846 848 850 852 854 856 857 859 860 861 862
686 690 694 704 707 704 710 720 724 727 719 702 692 688 685 687 686 689 706 712 697 688 691 689 690 697 705 712 714 715 722 733 739 734 729 732 736 738 743 748 752 756 760 763 767 771 775 779 782 786 789 791 795 798 801 804 807 809 813 815 817 820 822 824 825 827 830 832 834 836 838 839 841 842 844 846 848 850 852 854 856 857 859 860 861 862
692 695 699 706 710 708 708 714 719 721 712 697 690 688 686 685 685 700 723 721 698 691 694 691 690 696 701 707 711 713 718 722 725 724 724 729 734 737 741 746 750 755 760 763 767 771 774 778 781 785 788 791 794 797 800 803 806 809 811 813 816 819 821 823 825 827 830 832 833 835 837 838 840 842 844 846 848 850 852 854 855 857 858 859 861 861
699 700 703 707 710 710 710 713 719 718 706 694 690 687 684 686 696 715 726 713 696 694 693 689 692 696 698 703 708 710 710 708 710 716 721 726 732 737 740 744 749 753 757 763 767 770 773 777 780 783 787 790 793 795 799 802 805 808 810 812 815 818 820 823 824 827 830 832 833 835 837 838 841 843 845 847 848 850 852 854 855 856 858 859 860 861
703 703 706 708 710 711 709 711 719 718 702 690 689 687 686 698 714 718 709 698 695 695 690 688 693 695 696 702 705 705 705 704 707 714 719 724 730 735 740 745 749 753 757 762 766 769 772 776 779 782 786 789 792 795 798 801 804 807 809 812 814 817 820 822 824 827 829 831 832 834 836 839 841 843 845 847 848 850 851 853 855 856 857 859 859 860
699 704 710 708 706 710 712 713 723 723 706 693 694 694 695 704 711 705 697 696 697 694 689 689 693 695 697 702 705 705 705 707 711 716 720 726 730 734 739 744 748 753 757 760 765 768 771 774 778 782 785 788 791 794 797 800 804 806 809 811 813 816 819 822 824 827 828 830 832 834 836 839 841 843 845 847 848 850 851 852 854 856 857 858 858 859
695 701 709 707 702 708 717 719 719 716 705 699 700 701 700 700 697 695 697 699 696 695 693 693 694 696 697 700 704 706 708 711 715 719 723 728 732 735 739 743 747 752 756 759 764 767 770 774 777 781 785 788 791 794 796 799 802 805 808 811 813 815 818 821 824 826 828 830 832 834 837 839 841 843 844 846 848 849 850 852 853 855 856 857 857 858
700 698 701 704 702 704 711 712 708 705 702 700 699 697 696 696 693 693 697 698 698 698 696 695 697 698 697 699 704 707 709 713 716 719 723 728 732 735 739 743 747 750 755 759 763 767 770 773 776 780 784 787 790 793 796 798 801 804 807 809 812 814 817 820 823 825 827 830 832 834 837 839 841 842 844 846 847 848 850 851 852 853 855 855 856 857
701 696 695 701 705 704 705 705 703 703 702 699 696 696 695 695 695 695 696 698 699 698 697 697 698 699 700 702 705 708 712 714 716 720 724 728 732 736 740 744 748 751 755 759 763 766 770 773 776 779 783 786 789 792 795 798 800 803 805 808 811 813 816 819 822 824 827 829 832 834 837 838 840 842 843 845 847 848 849 850 851 852 853 854 855 857
701 698 698 701 705 708 712 710 705 705 706 702 699 698 696 696 697 697 698 699 698 697 698 698 699 700 702 703 705 710 714 715 718 723 727 730 734 738 741 745 749 752 755 759 763 767 770 772 776 778 781 784 788 790 794 797 800 802 805 807 810 813 816 818 821 823 826 829 832 834 836 837 839 841 843 844 846 847 848 849 850 851 852 853 855 856
704 701 703 703 705 711 716 713 707 705 705 703 701 701 700 700 700 699 698 699 698 698 699 699 700 702 704 704 707 710 714 716 720 724 728 732 735 739 742 746 749 752 756 759 763 767 770 772 775 778 781 784 787 789 793 796 799 801 803 806 809 812 814 817 820 822 825 828 831 834 835 837 838 840 842 843 845 846 847 848 849 851 852 853 854 855
706 705 706 706 709 714 714 711 707 706 706 705 703 703 702 702 702 701 701 700 700 700 701 701 702 703 704 706 708 710 714 718 721 724 729 733 736 739 743 746 749 753 756 759 762 766 769 772 774 777 780 783 786 789 792 794 797 800 801 804 807 810 813 816 819 822 825 828 830 833 835 836 838 840 841 842 844 845 846 848 849 850 851 853 854 855
707 710 708 708 715 719 716 711 708 709 711 711 708 705 704 703 703 704 704 702 702 702 703 703 704 704 705 707 708 711 715 719 721 725 729 732 736 740 743 746 750 754 756 760 763 765 768 771 774 776 779 782 785 787 790 793 796 798 800 803 806 809 812 815 818 821 825 827 829 831 833 835 837 839 840 842 843 844 845 847 849 850 852 853 854 856
708 711 709 710 716 718 713 710 709 709 712 713 709 706 705 704 705 706 705 704 704 703 703 705 706 707 708 709 710 712 715 719 722 725 729 733 736 739 743 746 750 753 756 760 763 765 768 771 773 776 778 781 783 786 789 791 794 797 799 802 805 808 811 813 816 820 823 825 828 830 832 834 837 838 840 841 843 844 845 847 848 850 851 853 854 855